Temperature
20 19 18 20 20 19 19 18 18 19 20 19 18 18 19 20 21 21 21 20 20 20 20 20 19 18 17 16 15 14 13 12 12 11 11 11 12 12 11 11 11 10 10 10
20 19 20 20 20 19 18 18 18 19 20 19 17 18 19 20 21 21 20 20 19 19 18 19 19 18 17 16 15 14 13 13 12 12 13 13 12 12 12 11 10 10 10 10
19 20 20 20 19 19 18 18 18 18 17 18 18 17 21 20 21 21 20 19 18 18 18 17 17 17 17 16 15 14 13 12 12 12 11 11 10 10 10 10 11 11 10 10
20 20 19 18 18 19 18 18 17 17 16 16 18 15 18 20 19 19 19 19 18 18 17 17 17 16 16 16 15 14 13 12 12 11 11 11 11 11 13 12 12 11 10 10
19 20 18 18 19 18 18 17 16 16 15 15 17 16 18 21 19 19 18 19 18 17 17 17 16 16 15 15 14 14 13 12 11 10 10 10 10 11 11 10 10 10 9 9
18 19 18 18 18 17 17 16 16 16 15 15 18 18 18 20 20 19 18 19 18 17 16 16 15 15 15 14 14 13 12 12 11 10 9 9 9 9 9 8 8 8 8 8
20 18 18 17 17 17 16 16 16 16 15 16 18 18 17 21 20 19 18 18 17 16 15 15 14 14 14 13 13 13 12 12 11 10 9 9 9 8 8 8 7 7 7 7
19 18 17 17 17 17 18 17 16 16 17 17 18 16 18 21 20 20 19 18 16 15 15 14 14 13 13 13 13 13 12 12 11 10 10 9 9 8 8 8 7 7 6 6
19 19 17 17 17 17 17 17 17 16 16 15 17 19 20 21 20 19 18 17 16 15 14 14 13 13 13 13 12 12 12 12 12 11 11 10 10 9 9 8 7 7 7 6
18 18 18 15 15 15 16 15 15 15 15 15 17 18 18 19 19 18 16 16 15 14 14 13 13 13 12 12 12 12 12 12 12 12 11 11 11 10 10 9 8 8 8 7
18 17 17 15 15 16 14 15 15 15 15 14 14 16 19 19 18 17 16 15 14 14 13 13 13 12 12 12 12 12 12 11 11 11 11 11 11 10 10 9 9 9 8 7
18 16 16 17 17 17 17 17 16 14 15 15 14 15 20 19 18 16 16 15 14 13 13 13 12 12 11 11 11 11 11 11 11 10 10 10 10 10 9 9 9 8 8 8
17 15 15 16 15 15 16 16 16 15 14 13 13 14 18 18 17 17 15 14 14 13 13 12 12 11 11 11 10 10 10 10 9 9 9 9 9 9 8 8 8 8 8 7
15 14 14 14 15 15 15 16 16 14 13 13 13 15 16 16 15 14 14 14 13 13 12 12 11 11 10 10 10 9 9 9 8 8 8 8 8 7 7 7 7 7 7 7
14 13 14 14 15 15 15 14 14 14 14 13 14 14 15 15 13 14 13 13 12 12 12 11 10 10 10 9 9 8 8 8 8 7 7 7 7 6 6 6 6 6 6 6
13 13 13 13 14 14 14 14 14 14 14 14 14 14 15 14 14 13 12 12 12 12 11 10 10 9 9 8 8 7 7 7 7 7 7 6 6 6 6 5 5 5 6 5
13 12 12 11 13 12 12 14 14 14 15 14 13 13 13 12 12 12 12 11 11 10 10 9 9 8 8 7 7 7 6 6 6 6 6 5 5 5 5 5 5 5 5 4
12 12 11 10 11 9 12 15 15 14 14 13 13 13 12 12 12 11 11 11 10 9 9 8 8 7 7 7 6 6 6 6 5 5 5 4 4 4 4 4 4 4 3 3
11 11 11 9 9 10 13 14 14 13 13 13 12 12 12 11 11 11 11 10 9 8 8 7 7 7 6 6 5 5 5 5 5 4 4 4 3 3 3 3 2 2 2 2
9 10 9 9 8 8 13 12 12 12 11 12 11 11 11 10 7 8 9 8 8 7 7 7 6 6 6 5 5 4 4 4 4 3 3 3 2 2 1 1 1 1 1 1
8 8 8 8 8 10 13 12 12 11 10 11 11 10 10 8 7 8 8 7 7 6 6 6 6 5 5 5 4 4 3 3 3 2 2 2 1 1 0 0 0 -0 -0 -0
10 9 8 8 8 9 12 12 11 11 11 11 10 9 8 8 7 7 7 6 6 6 5 5 5 5 4 4 3 3 3 2 2 1 1 1 0 -0 -1 -1 -1 -1 -1 -1
11 11 11 11 10 13 13 12 12 11 10 9 8 8 7 7 6 6 5 5 5 5 5 4 4 4 4 3 3 2 2 1 1 0 0 -0 -1 -1 -1 -1 -2 -2 -2 -2
11 12 11 10 11 12 12 11 10 9 8 8 7 7 6 6 5 5 4 4 4 4 4 4 3 3 3 2 2 1 1 0 -0 -0 -1 -1 -1 -2 -2 -2 -2 -2 -2 -2
10 10 9 9 9 11 11 9 8 7 7 6 6 6 5 5 4 4 4 4 4 3 3 3 2 2 2 1 1 1 0 -0 -1 -1 -2 -2 -2 -2 -2 -2 -3 -3 -3 -3
8 8 8 8 9 7 8 7 7 6 6 5 5 5 4 4 4 3 3 3 3 3 2 2 2 1 1 1 0 -0 -1 -1 -2 -2 -2 -3 -3 -3 -3 -3 -3 -3 -3 -3
Wind_Speed
6 5 7 6 4 7 8 9 13 13 6 4 11 17 20 15 5 7 8 8 8 8 7 2 6 11 12 13 13 15 16 15 14 12 13 14 14 12 10 12 19 23 24 25
6 8 6 4 4 5 8 11 12 11 5 8 12 15 17 6 5 5 7 8 9 10 10 9 4 6 9 12 12 13 15 16 15 14 12 10 9 9 9 8 15 22 24 25
10 5 2 3 7 9 10 10 9 9 10 9 8 10 3 8 10 8 9 10 9 10 10 9 7 2 6 9 12 12 13 15 16 14 8 7 7 7 10 11 13 16 23 24
7 0 2 4 8 8 8 4 6 8 8 6 6 6 7 7 9 9 9 9 8 8 8 7 6 4 3 8 9 11 12 13 14 14 12 13 14 17 17 12 11 12 18 21
6 3 2 6 4 4 5 6 7 8 7 6 6 6 8 5 8 8 9 8 8 8 8 8 6 5 3 3 7 8 10 11 12 13 15 14 16 15 10 10 12 14 14 17
11 2 1 2 2 2 7 8 10 5 3 5 5 5 7 1 6 8 8 8 8 9 9 9 9 7 5 2 2 5 7 9 10 12 13 15 17 14 11 12 12 12 11 13
7 8 4 1 4 6 5 5 4 2 4 5 2 3 8 3 7 8 8 7 8 9 9 9 10 10 9 6 2 3 6 7 9 11 13 14 15 15 15 13 12 11 11 12
5 4 8 6 2 3 4 3 4 4 5 5 3 7 7 1 5 8 8 7 8 9 8 8 9 9 8 8 5 2 4 7 8 9 11 12 13 11 12 13 12 13 12 12
5 1 4 3 1 2 4 2 2 3 7 6 6 7 6 2 4 7 7 8 8 7 7 7 7 7 7 7 6 3 3 5 6 8 9 10 12 12 13 13 13 12 12 10
5 6 4 5 2 4 4 6 3 4 4 5 7 7 2 3 3 5 6 6 7 6 6 7 6 6 5 4 4 3 3 4 5 6 7 8 10 11 12 12 14 14 13 12
3 5 2 5 7 8 6 4 5 5 6 4 6 6 5 6 5 6 6 6 6 5 5 5 6 6 7 6 6 4 4 4 5 6 7 8 9 9 10 11 13 13 13 13
1 3 6 8 1 4 2 3 5 5 7 6 7 8 3 3 5 5 6 6 4 4 3 4 6 7 7 8 8 7 6 6 6 6 6 7 8 8 9 11 12 11 12 13
2 3 5 4 3 2 2 4 6 6 6 7 8 10 4 8 11 7 6 6 5 5 5 5 6 7 8 9 9 9 8 8 7 6 6 7 8 8 9 10 10 10 11 12
2 4 6 8 10 8 9 9 8 8 8 11 13 18 16 16 11 7 6 6 6 7 6 6 7 8 9 9 9 9 9 9 9 8 7 8 8 9 9 9 9 10 10 11
3 6 10 13 13 13 15 16 13 15 15 17 19 20 20 10 5 6 7 8 9 9 7 7 8 9 10 10 10 10 10 10 9 9 9 9 9 8 8 9 9 10 10 11
4 5 8 12 12 14 19 20 17 17 16 17 18 18 7 3 5 7 8 9 11 8 8 9 11 11 10 10 10 11 10 10 10 10 10 10 9 9 9 9 10 10 11 11
5 5 5 6 7 11 12 12 10 7 6 7 10 8 5 6 7 8 9 10 9 9 10 11 11 10 10 10 10 11 10 11 11 11 11 10 10 10 10 10 10 11 11 11
6 5 4 5 6 9 9 4 1 3 6 7 8 5 6 6 7 8 9 8 10 12 12 11 9 9 9 9 10 10 10 11 11 11 11 11 10 10 10 10 11 12 11 11
4 6 5 4 5 10 10 5 2 3 5 5 4 6 8 9 9 8 8 10 11 11 11 9 8 9 10 10 10 11 11 11 12 12 11 11 10 11 11 12 12 12 11 11
1 4 5 5 5 7 5 3 4 3 4 6 8 8 9 10 10 8 9 12 12 11 9 8 8 9 10 11 11 11 12 12 13 12 12 11 11 12 12 13 13 11 10 11
4 5 7 6 6 8 3 3 1 2 3 6 7 8 9 8 8 11 12 11 10 10 10 9 9 9 10 10 11 12 12 13 12 12 12 12 12 12 13 13 11 11 10 10
7 6 7 6 7 8 3 1 1 5 7 8 9 9 10 10 11 11 11 11 11 10 10 10 9 10 10 11 11 13 13 13 13 12 13 13 12 12 12 12 12 11 11 11
6 6 4 5 6 3 3 5 7 8 8 8 9 10 10 11 11 11 10 10 10 10 10 9 10 11 11 11 11 14 15 14 14 13 13 13 12 11 11 12 13 12 10 10
5 4 5 6 6 8 9 9 9 9 10 10 10 10 10 10 11 11 10 10 10 10 10 9 11 13 14 12 11 13 15 14 14 14 13 12 12 12 12 10 10 10 10 11
6 6 6 10 10 10 6 9 11 11 11 11 10 10 8 9 10 10 10 10 9 9 9 10 11 14 15 14 14 14 14 14 14 13 12 12 12 13 12 11 10 12 11 13
6 7 8 9 8 8 10 10 11 11 10 10 9 9 8 8 9 10 9 9 10 11 11 12 13 14 16 16 16 14 13 12 13 12 12 11 11 12 12 13 13 15 17 23
Wind_Direction
220 236 259 288 348 343 328 304 296 294 315 324 282 288 296 304 342 14 15 20 15 2 348 339 182 185 180 182 186 185 188 190 190 196 202 205 211 211 210 208 206 203 201 202
256 248 272 353 8 313 287 285 286 295 343 322 284 289 286 270 93 71 57 52 39 24 16 13 56 149 174 181 188 188 189 191 195 202 205 207 208 211 215 211 211 207 204 202
261 258 92 336 300 281 276 280 301 320 329 279 275 300 282 120 109 93 76 68 58 44 35 21 17 119 176 189 193 198 196 195 197 197 194 201 206 211 216 216 216 211 208 206
277 307 55 289 276 279 285 345 335 319 322 307 330 304 289 154 119 104 88 70 58 49 45 37 18 357 222 209 200 199 199 199 197 194 201 203 210 218 220 218 216 213 212 211
271 139 214 268 301 347 297 337 285 283 288 286 252 234 278 205 132 115 99 81 62 47 39 29 19 345 309 225 201 202 204 207 202 200 205 212 222 229 228 220 219 217 217 216
251 191 209 309 19 248 299 291 262 227 264 263 222 207 283 345 111 107 91 75 55 39 29 21 13 5 352 337 199 199 209 219 212 208 210 215 225 229 229 227 226 223 220 219
236 192 160 153 267 197 239 296 316 230 220 228 108 244 254 302 98 102 91 68 50 41 31 21 14 8 5 359 312 214 216 231 225 219 219 222 226 228 232 232 231 228 226 223
283 188 167 187 255 339 297 309 310 302 294 318 274 238 252 101 99 110 102 78 57 46 36 28 20 12 5 2 355 305 240 238 234 228 228 228 228 230 236 235 233 233 233 228
317 50 114 125 96 267 282 233 50 321 286 269 250 241 246 195 108 102 83 65 57 49 40 31 22 13 4 0 355 337 292 260 245 236 233 232 230 231 234 233 234 238 238 232
318 301 182 143 183 224 285 327 310 251 272 283 279 276 283 52 39 59 54 58 59 51 37 27 13 2 354 347 335 340 318 284 261 247 241 240 236 235 235 234 236 237 238 234
291 278 243 173 206 197 177 205 227 259 273 276 290 278 344 350 42 42 43 56 62 45 30 18 4 354 347 346 339 328 308 291 275 262 254 252 250 245 243 241 241 239 238 234
235 298 279 261 47 77 131 242 247 252 265 271 285 277 307 84 62 51 53 54 59 47 23 5 356 348 344 340 332 327 316 303 284 268 262 260 261 258 253 251 249 243 240 236
33 271 287 268 87 65 190 228 238 259 278 267 266 269 306 339 344 15 41 29 20 9 355 350 350 340 334 328 323 322 320 314 304 289 276 272 267 263 261 259 258 251 245 242
1 254 246 266 290 310 291 276 259 252 261 263 254 272 294 311 330 12 22 11 358 343 339 343 340 330 322 318 318 319 318 316 311 303 291 283 274 268 267 267 267 263 255 249
231 257 263 272 285 291 288 282 274 265 263 268 276 283 294 316 7 13 4 355 338 324 329 338 333 323 318 320 321 322 317 314 312 308 300 289 282 278 278 278 276 272 265 258
213 267 284 279 281 282 279 272 267 265 262 262 272 280 298 20 17 5 354 336 315 314 333 337 329 323 323 323 322 319 314 313 314 310 301 295 290 284 280 277 276 273 269 264
213 233 286 281 298 304 277 267 252 238 249 275 282 300 5 8 5 352 331 313 320 338 337 328 324 323 322 319 317 314 312 314 312 306 301 298 294 290 284 282 281 276 271 265
250 271 277 286 304 254 253 300 303 278 287 293 293 334 23 360 342 321 310 330 344 336 327 323 323 321 317 315 314 313 315 313 308 305 301 300 298 293 290 286 282 280 276 270
248 223 237 253 268 278 278 296 7 348 298 311 343 9 354 340 325 311 337 352 335 325 320 318 318 317 317 314 314 315 311 308 306 303 301 301 301 297 295 290 285 282 279 276
295 213 219 226 238 255 287 67 50 11 290 34 19 351 338 341 322 310 336 330 320 318 317 317 318 317 313 310 313 311 306 305 303 302 301 302 301 297 294 291 289 286 279 276
167 193 218 237 247 261 291 130 67 274 304 356 345 335 335 323 300 309 323 321 316 314 313 316 316 310 305 308 309 303 301 300 299 301 302 301 299 296 294 294 293 291 286 283
183 196 203 201 220 253 143 100 313 309 335 341 344 342 330 317 313 316 318 318 318 314 313 315 311 305 305 306 305 303 301 301 302 301 300 298 296 297 299 296 295 291 289 288
218 225 232 216 226 285 30 345 339 353 349 348 341 331 323 316 314 317 318 316 311 308 308 308 306 304 303 302 302 302 303 305 305 302 300 299 298 297 296 295 296 296 292 288
262 258 261 280 287 321 331 337 352 359 346 336 331 326 322 316 316 316 314 310 306 304 307 309 308 306 305 304 303 301 304 305 303 301 301 299 300 300 297 294 292 293 292 289
284 316 293 279 290 303 317 347 346 341 334 329 326 322 319 316 311 310 307 304 305 308 307 307 305 304 305 308 306 302 301 303 302 300 300 300 298 298 298 294 291 291 283 284
241 255 265 277 311 318 319 335 337 331 326 324 321 319 316 308 302 303 302 303 305 306 307 307 305 305 305 305 302 301 302 304 306 306 304 301 299 299 297 296 295 287 286 294
Height
1526 1529 1529 1523 1520 1522 1522 1524 1524 1514 1505 1506 1505 1498 1488 1483 1482 1480 1480 1479 1479 1478 1477 1477 1476 1478 1481 1483 1486 1487 1488 1489 1492 1493 1493 1494 1495 1497 1498 1499 1501 1503 1504 1506
1526 1527 1521 1518 1519 1521 1523 1524 1520 1510 1503 1506 1502 1495 1484 1479 1480 1481 1481 1481 1480 1479 1477 1476 1476 1477 1478 1479 1481 1482 1482 1483 1484 1485 1486 1488 1490 1491 1492 1493 1494 1494 1495 1497
1525 1519 1518 1519 1521 1521 1520 1521 1517 1515 1510 1502 1502 1498 1481 1479 1479 1481 1482 1482 1482 1481 1480 1478 1478 1478 1477 1477 1477 1477 1477 1477 1478 1479 1482 1483 1484 1484 1484 1483 1484 1485 1487 1488
1518 1515 1518 1520 1520 1518 1521 1514 1516 1516 1520 1516 1507 1517 1490 1479 1480 1481 1482 1483 1483 1482 1481 1479 1478 1477 1476 1474 1473 1473 1473 1473 1473 1474 1475 1474 1474 1472 1471 1474 1476 1478 1479 1479
1518 1515 1517 1520 1517 1517 1515 1513 1515 1516 1519 1521 1508 1513 1496 1477 1482 1482 1482 1483 1483 1483 1481 1480 1478 1476 1474 1472 1471 1470 1469 1469 1469 1469 1468 1468 1467 1467 1468 1470 1469 1469 1469 1470
1514 1514 1516 1516 1516 1517 1516 1514 1511 1514 1519 1524 1502 1506 1499 1480 1479 1480 1481 1482 1483 1482 1481 1479 1477 1475 1472 1470 1468 1467 1466 1465 1466 1465 1464 1463 1462 1463 1463 1463 1462 1462 1461 1461
1508 1512 1514 1516 1517 1516 1518 1520 1520 1522 1528 1518 1498 1501 1496 1476 1474 1477 1480 1482 1482 1481 1480 1478 1476 1473 1471 1468 1466 1464 1463 1462 1461 1461 1460 1459 1458 1457 1456 1456 1456 1456 1454 1452
1513 1515 1514 1515 1515 1518 1514 1517 1528 1532 1522 1511 1498 1503 1486 1472 1473 1475 1479 1481 1481 1480 1479 1477 1475 1473 1471 1468 1465 1463 1461 1459 1457 1456 1455 1454 1452 1451 1449 1449 1448 1447 1445 1444
1513 1513 1512 1511 1512 1515 1514 1514 1513 1523 1520 1521 1504 1486 1474 1469 1472 1475 1478 1479 1479 1479 1478 1476 1475 1474 1471 1469 1466 1463 1460 1458 1455 1453 1451 1448 1447 1445 1442 1441 1440 1438 1437 1437
1513 1517 1510 1513 1514 1515 1515 1516 1519 1522 1526 1524 1503 1491 1486 1476 1475 1476 1477 1478 1478 1478 1477 1476 1475 1473 1471 1469 1466 1463 1460 1457 1454 1451 1448 1445 1442 1439 1436 1434 1431 1429 1428 1428
1513 1518 1513 1514 1514 1510 1518 1517 1517 1518 1516 1523 1519 1502 1475 1474 1474 1476 1477 1477 1477 1477 1477 1476 1474 1473 1471 1468 1465 1462 1458 1455 1451 1448 1444 1441 1437 1434 1431 1428 1424 1422 1419 1418
1512 1516 1517 1507 1501 1501 1504 1507 1511 1522 1517 1511 1515 1501 1472 1471 1473 1475 1477 1477 1477 1476 1475 1474 1473 1471 1468 1465 1462 1459 1455 1451 1447 1443 1440 1436 1432 1429 1425 1421 1418 1415 1411 1409
1513 1518 1521 1511 1512 1508 1507 1505 1506 1510 1513 1514 1516 1500 1472 1471 1472 1475 1476 1476 1475 1475 1473 1472 1470 1468 1465 1462 1458 1455 1451 1447 1443 1439 1434 1430 1426 1422 1418 1414 1410 1407 1403 1400
1515 1516 1520 1520 1511 1507 1506 1504 1503 1507 1512 1508 1501 1489 1478 1476 1475 1475 1475 1474 1474 1473 1471 1469 1467 1464 1462 1458 1454 1450 1446 1442 1437 1433 1429 1424 1419 1415 1410 1406 1402 1398 1394 1391
1515 1517 1512 1508 1504 1502 1501 1499 1499 1500 1499 1499 1489 1485 1478 1476 1475 1475 1474 1473 1472 1470 1468 1466 1463 1461 1457 1453 1449 1445 1440 1436 1432 1427 1422 1417 1413 1408 1403 1399 1394 1390 1386 1382
1513 1515 1511 1509 1504 1501 1497 1491 1490 1489 1487 1486 1483 1480 1474 1474 1474 1473 1473 1472 1470 1467 1465 1463 1460 1456 1453 1449 1444 1440 1435 1431 1426 1421 1416 1411 1406 1401 1396 1391 1386 1381 1377 1373
1509 1512 1513 1512 1503 1502 1497 1482 1479 1479 1477 1479 1480 1477 1473 1473 1474 1473 1472 1470 1468 1465 1462 1459 1456 1452 1448 1444 1439 1435 1430 1425 1420 1415 1409 1404 1399 1393 1388 1383 1378 1373 1368 1364
1508 1510 1513 1514 1509 1513 1489 1473 1473 1475 1475 1475 1474 1473 1474 1474 1474 1473 1471 1468 1465 1462 1459 1455 1451 1447 1443 1439 1435 1430 1425 1419 1414 1408 1403 1398 1392 1386 1380 1375 1370 1365 1360 1355
1503 1507 1511 1514 1512 1500 1482 1474 1474 1476 1476 1474 1473 1473 1473 1472 1470 1470 1469 1466 1463 1459 1456 1451 1447 1443 1439 1434 1430 1424 1419 1413 1408 1402 1396 1391 1385 1379 1373 1367 1361 1357 1352 1347
1503 1505 1511 1511 1513 1508 1483 1478 1475 1478 1480 1475 1474 1474 1473 1471 1471 1467 1466 1463 1459 1455 1451 1447 1442 1438 1434 1429 1424 1419 1413 1407 1401 1396 1390 1384 1378 1372 1365 1360 1354 1349 1344 1339
1505 1507 1509 1510 1508 1494 1477 1477 1477 1484 1482 1476 1474 1472 1471 1470 1469 1464 1460 1457 1454 1450 1446 1442 1438 1434 1429 1424 1419 1413 1407 1401 1395 1389 1383 1376 1371 1365 1359 1352 1347 1342 1336 1331
1495 1500 1501 1501 1504 1495 1477 1477 1479 1479 1475 1473 1471 1470 1468 1465 1462 1459 1455 1452 1448 1445 1441 1437 1433 1428 1424 1419 1413 1406 1400 1395 1388 1381 1375 1369 1363 1357 1351 1345 1340 1335 1329 1323
1486 1484 1484 1484 1484 1475 1474 1475 1475 1474 1472 1471 1469 1467 1465 1461 1457 1454 1451 1447 1444 1440 1436 1432 1428 1422 1417 1413 1408 1400 1393 1387 1380 1373 1367 1361 1355 1349 1344 1338 1332 1327 1322 1317
1480 1478 1479 1479 1474 1473 1473 1473 1473 1472 1470 1468 1466 1463 1460 1457 1453 1450 1446 1443 1439 1435 1432 1427 1422 1416 1410 1406 1400 1394 1387 1380 1373 1366 1359 1353 1347 1341 1336 1331 1326 1321 1315 1310
1481 1479 1479 1477 1474 1473 1472 1472 1470 1468 1466 1464 1461 1459 1456 1453 1449 1446 1442 1438 1435 1431 1426 1422 1417 1410 1404 1398 1392 1386 1380 1373 1365 1358 1352 1346 1340 1334 1328 1323 1319 1314 1309 1305
1479 1480 1480 1476 1474 1474 1471 1470 1468 1466 1463 1461 1458 1454 1452 1449 1445 1442 1438 1434 1430 1426 1421 1415 1410 1403 1396 1390 1383 1377 1372 1366 1358 1350 1344 1338 1332 1326 1320 1315 1309 1306 1302 1297